Location: Oak Glen
(34.0495°N, 116.9470°E)
Time: 04:51:51
(UTC-07:00)

Envisat - Pass Details

Date: 08 October 2017
Orbit: 764 x 766 km, 98.2° (Epoch: 23 October)

Event Time Altitude Azimuth Distance (km) Brightness Sun altitude
Exits shadow 04:19:41 25° 46° (NE) 1,513 4.2 -19.9°
Drops below altitude 10° 04:22:42 10° 13° (NNE) 2,304 5.4 -20.5°
Sets 04:25:17 0° 2° (N) 3,233 6.3 -21.1°
